DW3793 Weather Reports


Display with metric or nautical units.
time (UTC)temp
F
wind
direction
speed
MPH
gust
MPH
rain 1hr
in
rain 24hr
in
rain mn
in
humidity
%
barometer
mb
20260902220027 75 12 5.0 14.0 0.00 0.00 0.00 32 1008.1
20260902214528 75 5 5.0 16.0 0.00 0.00 0.00 33 1008.3
20260902213050 73 30 4.0 13.0 0.00 0.00 0.00 35 1008.6
20260902211557 72 325 3.0 13.0 0.00 0.00 0.00 37 1008.9
20260902210057 71 296 3.0 16.0 0.00 0.00 0.00 37 1009.0
20260902204549 72 313 6.0 16.0 0.00 0.00 0.00 35 1009.0
20260902203049 73 261 8.0 17.0 0.00 0.00 0.00 33 1008.8
20260902201549 73 319 12.0 21.0 0.00 0.00 0.00 32 1008.8
20260902200021 72 332 3.0 10.0 0.00 0.00 0.00 38 1008.8
20260902194514 72 271 3.0 13.0 0.00 0.00 0.00 38 1009.1
20260902193004 71 107 3.0 10.0 0.00 0.00 0.00 42 1009.4
20260902191503 70 26 2.0 8.0 0.00 0.00 0.00 42 1009.7
20260902190106 69 107 2.0 7.0 0.00 0.00 0.00 42 1009.7
20260902190003 69 80 1.0 6.0 0.00 0.00 0.00 43 1009.7
20260902184618 69 88 2.0 7.0 0.00 0.00 0.00 46 1010.0
20260902183046 68 98 1.0 4.0 0.00 0.00 0.00 47 1010.0
20260902180042 65 105 2.0 4.0 0.00 0.00 0.00 50 1010.3
20260902174536 64 167 0.0 7.0 0.00 0.00 0.00 52 1010.6
20260902173038 64 154 2.0 6.0 0.00 0.00 0.00 52 1010.7
20260902171531 63 210 0.0 5.0 0.00 0.00 0.00 53 1010.9
20260902170030 63 144 1.0 8.0 0.00 0.00 0.00 54 1011.0
20260902164533 62 132 1.0 7.0 0.00 0.00 0.00 55 1011.1
20260902163029 62 78 0.0 6.0 0.00 0.00 0.00 55 1011.1
20260902161526 62 345 0.0 2.0 0.00 0.00 0.00 57 1010.9
20260902160021 61 64 0.0 5.0 0.00 0.00 0.00 59 1010.9
20260902154519 60 355 1.0 4.0 0.00 0.00 0.00 59 1011.0
20260902153020 59 66 0.0 1.0 0.00 0.00 0.00 61 1010.9
20260902151507 58 293 0.0 1.0 0.00 0.00 0.00 63 1010.8
20260902150004 56 293 0.0 3.0 0.00 0.00 0.00 67 1010.9
20260902144503 56 248 0.0 1.0 0.00 0.00 0.00 66 1010.9
20260902143000 55 248 0.0 4.0 0.00 0.00 0.00 68 1011.0
20260902141555 55 248 0.0 3.0 0.00 0.00 0.00 69 1010.9
20260902140051 55 248 0.0 0.0 0.00 0.00 0.00 69 1010.8
20260902134603 56 248 0.0 2.0 0.00 0.00 0.00 68 1011.0
20260902133051 56 157 3.0 9.0 0.00 0.00 0.00 69 1010.9
20260902131549 56 23 5.0 14.0 0.00 0.00 0.00 68 1010.3
20260902130051 57 248 2.0 5.0 0.00 0.00 0.00 68 1009.8
20260902124543 57 296 2.0 8.0 0.00 0.00 0.00 65 1011.1
20260902123041 57 234 1.0 8.0 0.00 0.00 0.00 64 1011.4
20260902121535 57 49 1.0 10.0 0.00 0.00 0.00 64 1011.0
20260902120038 57 80 0.0 6.0 0.00 0.00 0.00 62 1010.4
20260902114534 56 14 0.0 2.0 0.00 0.00 0.00 64 1010.2
20260902113031 56 355 2.0 5.0 0.00 0.00 0.00 65 1010.3
20260902111528 56 263 0.0 3.0 0.00 0.00 0.00 66 1010.7
20260902110027 56 318 0.0 2.0 0.00 0.00 0.00 66 1010.8
20260902104524 55 342 1.0 8.0 0.00 0.00 0.00 68 1010.8
20260902103024 55 284 0.0 2.0 0.00 0.00 0.00 67 1010.6
20260902101553 55 279 0.0 3.0 0.00 0.00 0.00 65 1010.5
20260902100107 55 335 1.0 3.0 0.00 0.00 0.00 64 1010.5
20260902094549 55 302 0.0 3.0 0.00 0.00 0.00 65 1010.3
20260902093048 54 294 0.0 4.0 0.00 0.00 0.00 65 1010.1
20260902091605 55 302 1.0 3.0 0.00 0.00 0.00 63 1010.2
20260902090045 55 284 2.0 4.0 0.00 0.00 0.00 64 1010.4
20260902084514 54 323 1.0 3.0 0.00 0.00 0.00 66 1010.5
20260902083013 54 328 0.0 2.0 0.00 0.00 0.00 66 1010.5
20260902081511 53 292 1.0 5.0 0.00 0.00 0.00 67 1010.5
20260902080010 54 314 1.0 3.0 0.00 0.00 0.00 66 1010.3
20260902070033 57 334 0.0 1.0 0.00 0.00 0.00 62 1009.6
20260902064533 59 332 0.0 2.0 0.00 0.00 0.00 59 1009.7
20260902063041 61 251 0.0 3.0 0.00 0.00 0.00 56 1009.8
20260902061541 62 267 0.0 2.0 0.00 0.00 0.00 55 1009.7
20260902060033 62 256 1.0 5.0 0.00 0.00 0.00 55 1009.6
20260902054538 62 309 1.0 5.0 0.00 0.00 0.00 56 1009.4
20260902053028 61 317 0.0 5.0 0.00 0.00 0.00 57 1009.3
20260902051530 62 337 1.0 4.0 0.00 0.00 0.00 56 1009.2
20260902050032 62 293 2.0 8.0 0.00 0.00 0.00 55 1009.1
20260902044529 62 333 1.0 3.0 0.00 0.00 0.00 55 1009.0
20260902043023 63 323 1.0 3.0 0.00 0.00 0.00 55 1008.9
20260902041531 64 302 0.0 2.0 0.00 0.00 0.00 53 1008.7
20260902040020 64 277 0.0 4.0 0.00 0.00 0.00 52 1008.7
20260902034527 66 331 1.0 4.0 0.00 0.00 0.00 51 1008.6
20260902034525 66 334 1.0 4.0 0.00 0.00 0.00 51 1008.6
20260902033018 67 303 1.0 4.0 0.00 0.00 0.00 49 1008.5
20260902031518 69 216 1.0 9.0 0.00 0.00 0.00 46 1008.3
20260902030015 72 87 13.0 20.0 0.00 0.00 0.00 42 1007.6
20260902024615 73 72 7.0 15.0 0.00 0.00 0.00 38 1007.2
20260902023018 75 318 2.0 11.0 0.00 0.00 0.00 34 1006.7
20260902021520 76 331 2.0 5.0 0.00 0.00 0.00 32 1006.6
20260902020011 78 328 3.0 8.0 0.00 0.00 0.00 31 1006.7
20260902014509 79 323 3.0 11.0 0.00 0.00 0.00 30 1006.8
20260902013007 80 317 5.0 10.0 0.00 0.00 0.00 29 1007.1
20260902011509 80 317 6.0 14.0 0.00 0.00 0.00 29 1007.1
20260902010007 81 277 6.0 19.0 0.00 0.00 0.00 29 1007.0
20260902004503 81 334 7.0 13.0 0.00 0.00 0.00 29 1007.1
20260902003001 81 292 4.0 19.0 0.00 0.00 0.00 28 1007.3
20260902001601 81 34 5.0 16.0 0.00 0.00 0.00 28 1007.6
20260902000055 82 305 7.0 20.0 0.00 0.00 0.00 27 1007.7
20260901234553 82 273 7.0 14.0 0.00 0.00 0.00 28 1007.8
20260901233059 82 298 4.0 12.0 0.00 0.00 0.00 30 1008.0
20260901231555 81 325 7.0 14.0 0.00 0.00 0.00 31 1008.1
20260901230044 79 294 4.0 15.0 0.00 0.00 0.00 32 1008.3
20260901224544 80 340 6.0 13.0 0.00 0.00 0.00 31 1008.4
20260901223049 78 317 3.0 10.0 0.00 0.00 0.00 33 1008.7
20260901221537 78 360 5.0 13.0 0.00 0.00 0.00 33 1008.9